Regional Weather Roundup
Issued by NWS Northern Indiana

Home | Current Version | Previous Version | Text Only | Print | Product List | Glossary On
Versions: 1 2 3 4 5 6 7 8 9 10 11 12 13 14 15 16 17 18 19 20 21 22 23 24 25 26 27 28 29 30 31 32 33 34 35 36 37 38 39 40 41 42 43 44 45 46 47 48 49 50
000
ASUS43 KIWX 232010
RWRIWX

KIWX WEATHER ROUNDUP
NATIONAL WEATHER SERVICE NORTHERN INDIANA
300 PM EST THU FEB 23 2017

NOTE: "FAIR" INDICATES FEW OR NO CLOUDS BELOW 12,000 FEET WITH NO
SIGNIFICANT WEATHER AND/OR OBSTRUCTIONS TO VISIBILITY.

* THESE STATIONS ARE NOT UNDER NWS QUALITY CONTROL. THEY ALSO MAY NOT
  REPORT WEATHER SUCH AS PRECIPITATION OR FOG.

INZ001>027-232100-
NORTHERN INDIANA

CITY           SKY/WX    TMP DP  RH WIND       PRES   REMARKS
VALPARAISO     CLOUDY    48  41  76 NE9       29.80S
MICHIGAN CITY* CLOUDY    39  39 100 NE8       29.82S FOG
LAPORTE*       CLOUDY    45  40  82 N10       29.80F
KNOX*          CLOUDY    50  27  40 N9        29.78S
SOUTH BEND     CLOUDY    47  40  76 N13       29.80S
ELKHART*       SUNNY     50  41  71 NW5       29.79F
GOSHEN         CLOUDY    55  44  66 N9        29.77S
MONTICELLO*    CLOUDY    59  47  64 N10       29.74S
LOGANSPORT*    CLOUDY    63  46  55 CALM      29.74F
ROCHESTER*     CLOUDY    61  46  59 N9        29.76F
WARSAW*        CLOUDY    57  46  67 N6        29.77R
ANGOLA*        SUNNY     61  48  63 N8        29.76S
FORT WAYNE     CLOUDY    65  50  58 SW3       29.75R
HUNTINGTON*    CLOUDY    63  51  67 SW7       29.75S
PERU/GRISSOM   CLOUDY    62  54  73 W3        29.73F
MARION*        CLOUDY    61  54  78 W6        29.76S

$$
INZ028>050-232100-
CENTRAL INDIANA

CITY           SKY/WX    TMP DP  RH WIND       PRES   REMARKS
LAFAYETTE      CLOUDY    60  54  80 CALM      29.73F
KOKOMO*        CLOUDY    61  55  81 W9        29.76S
MUNCIE*        CLOUDY    65  55  70 W7        29.74F
INDIANAPOLIS   CLOUDY    68  54  60 SW9       29.71F

$$
MIZ043>046-050>051-056>058-064>065-071>073-077>080-232100-
SOUTHWEST LOWER MICHIGAN

CITY           SKY/WX    TMP DP  RH WIND       PRES   REMARKS
BATTLE CREEK   CLOUDY    53  43  68 N12       29.80R
BENTON HARBOR  CLOUDY    39  34  82 VRB6      29.83S
COLDWATER*     PTSUNNY   57  45  62 NW8       29.78R
HILLSDALE*     MOSUNNY   59  43  55 W8        29.76R
HOLLAND        CLOUDY    42  36  79 NW10      29.83S
GRAND RAPIDS   CLOUDY    50  39  66 W8        29.81R
KALAMAZOO      CLOUDY    50  40  68 N9        29.81R
STURGIS*       CLOUDY    54  45  71 NW5       29.78R
THREE RIVERS*  FAIR      52  42  69 N8        29.80S

$$
OHZ001>008-015>018-024>025-232100-
NORTHWEST OHIO

CITY           SKY/WX    TMP DP  RH WIND       PRES   REMARKS
WAUSEON*       FAIR      66  46  48 NW8G15    29.75R
DEFIANCE       PTSUNNY   65  46  50 VRB5      29.75R
FINDLAY        CLOUDY    65  52  62 W13       29.74S
TOLEDO EXPRESS MOSUNNY   67  47  48 W8        29.74R
TOLEDO METCALF SUNNY     68  47  46 W9        29.74R
LIMA           MOSUNNY   64  56  75 W8        29.75S

$$
AND FOR LAKE MICHIGAN COASTAL AND OPEN LAKE BUOY OBSERVATIONS

STATION/POSITION TEMP    WIND        PRES    VSBY  WAVE
                 AIR SEA DIR/SP/G                  HT/PER
                 (F)     (DEG/KT/KT) (MB)    (MI)  (FT/S)
CALUMET HARBOR    38      10/  9/ 13 1009.4S
MICHIGAN CITY     37      40/  8/ 10   N/A
BURNS HARBOR      38      80/ 10/ 11 1010.2S
SAINT JOSEPH      38      20/ 10/ 13 1010.2

$$
&&




USA.gov is the U.S. government's official web portal to all federal, state and local government web resources and services.